User: anonymous   Login
Location: Scultetus-Sternwarte G�rlitz
(51.1356°N, 14.9514°E)
Time: 08:41:52
(UTC+02:00)
Language:

Iridium 3 - Orbit

View from above orbital plane
View from above orbital plane
View from above satellite
View from above satellite

Ground track
Ground track

The orbit data is extracted from the following two-line orbital elements,

1 25431U 98048A   15089.46365719  .00000238  00000-0  77832-4 0  9992
2 25431 086.3963 234.1141 0002240 098.5944 321.7175 14.34214948869554
Epoch (UTC): 30 March 2015 11:07:39
Eccentricity: 0.0002240
inclination: 86.3963°
perigee height: 776 km
apogee height: 779 km
right ascension of ascending node: 234.1141°
argument of perigee: 98.5944°
revolutions per day: 14.34214948
mean anomaly at epoch: 321.7175°
orbit number at epoch: 86955

The dashed part of the orbit path shows where the satellite is in the earth's shadow,  

DLR